Weather Service Report


814 
ASUS42 KRAH 012010
RWRRAH
NORTH CAROLINA WEATHER ROUNDUP
NATIONAL WEATHER SERVICE RALEIGH NC
400 PM EDT WED OCT 01 2014

NOTE: "FAIR" INDICATES FEW OR NO CLOUDS BELOW 12,000 FEET WITH NO
SIGNIFICANT WEATHER AND/OR OBSTRUCTIONS TO VISIBILITY.

NCZ001-053-055-056-065-067-012100-
WESTERN NORTH CAROLINA
  
CITY           SKY/WX    TMP DP  RH WIND       PRES   REMARKS
ASHEVILLE      MOSUNNY   76  57  51 VRB3      30.04S                  
JEFFERSON      PTSUNNY   70  48  44 N5        30.08S                  
MORGANTON      MOSUNNY   81  51  35 CALM      30.04F                  
HICKORY        MOSUNNY   79  57  46 CALM      29.99F                  
RUTHERFORDTON  MOSUNNY   81  58  45 CALM      29.99F                  
MOUNT AIRY     PTSUNNY   77  62  58 S3        30.02S                  
BOONE          PTSUNNY   70  55  59 SE8       30.09S                  
$$
 
NCZ021-022-025-041-071-084-088-012100-
CENTRAL NORTH CAROLINA
  
CITY           SKY/WX    TMP DP  RH WIND       PRES   REMARKS
CHARLOTTE      PTSUNNY   82  53  36 CALM      29.98F                  
GREENSBORO     PTSUNNY   76  63  64 E6        30.00F                  
WINSTON-SALEM  SUNNY     75  61  61 VRB6      30.01F                  
RALEIGH-DURHAM PTSUNNY   78  61  55 CALM      30.00S                  
FORT BRAGG     MOSUNNY   81  66  61 NE6       29.97F                  
FAYETTEVILLE   MOSUNNY   81  64  56 NE5       29.97F                  
BURLINGTON     PTSUNNY   75  63  66 VRB3      30.01S                  
LAURINBURG     MOSUNNY   81  65  58 S3        29.97F                  
$$
 
NCZ011-015-027-028-043-044-047-080-103-012100-
NORTHEASTERN NORTH CAROLINA
  
CITY           SKY/WX    TMP DP  RH WIND       PRES   REMARKS
ROCKY MT-WILSO MOSUNNY   79  63  57 NW5       29.99S                  
GREENVILLE     MOSUNNY   79  63  57 N6        30.00S                  
WASHINGTON     PTSUNNY   78  64  61 N9        29.98S                  
ELIZABETH CITY MOSUNNY   77  63  61 NE9       29.97S                  
MANTEO         MOSUNNY   73  63  70 N13       29.98S                  
CAPE HATTERAS  SUNNY     73  64  73 N9G21     29.96S                  
$$
 
NCZ078-087-090-091-093-098-101-012100-
SOUTHEASTERN NORTH CAROLINA
  
CITY           SKY/WX    TMP DP  RH WIND       PRES   REMARKS
LUMBERTON      PTSUNNY   84  64  50 VRB3      29.96F                  
GOLDSBORO      MOSUNNY   80  67  65 CALM      29.96F                  
KINSTON        MOSUNNY   77  63  61 N6        29.98F                  
KENANSVILLE    MOSUNNY   80  62  54 N6        29.98S                  
NEW BERN       PTSUNNY   82  63  52 N9        29.97F                  
CHERRY POINT   MOSUNNY   81  64  56 NW7       29.97S                  
BEAUFORT       MOSUNNY   80  64  58 N8        29.95F                  
JACKSONVILLE   SUNNY     81  62  52 N9        29.96S                  
WILMINGTON     MOSUNNY   82  64  54 N6        29.96F                  
$$


Return to Home page


Western Regional Climate Center, wrcc@dri.edu